Terminal Aerodrome Forecast
Issued by NWS

Home | Current Version | Previous Version | Text Only | Print | Product List | Glossary On
Versions: 1 2 3 4 5 6 7 8 9 10 11 12 13
982
FTAK31 PAJN 080540
TAFAJN
TAF
PAJN 080540Z 0806/0906 08010KT P6SM VCSH SCT010 BKN029 OVC050
     FM081200 10002KT P6SM FEW010 FEW030 BKN060
     FM081800 09005KT P6SM VCSH FEW030 OVC060
     FM082100 12006KT 5SM -RA BR SCT015 BKN040 OVC060
     FM090200 11012KT 4SM -RA BR SCT007 BKN015 OVC030=

USA.gov is the U.S. government's official web portal to all federal, state and local government web resources and services.